DLH5MX EDDF-EDDM

Flight info

Callsign DLH5MX
Flight time 0h 32m
Altitude 25000
Route CINDY8S CINDY Z74 HAREM T104 ROKIL ROKIL1A
Aircraft A321/M-SDE2E3FGIJ1LORWXYZ/HB1

Departure

Time 2026-05-04 16:55
Airport Frankfurt Main Airport (EDDF)

Arrival

Time 2026-05-04 17:27
Airport Munich Airport (EDDM)
Time Latitude Longitude Altitude Speed Heading
2026-05-04 16:21 50.04431 8.56329 362 ft 0 kts 167°
2026-05-04 16:22 50.04418 8.56275 360 ft 0 kts 162°
2026-05-04 16:41 50.04430 8.56268 364 ft 3 kts 161°
2026-05-04 16:42 50.04486 8.56258 361 ft 3 kts 243°
2026-05-04 16:43 50.04478 8.56223 361 ft 3 kts 249°
2026-05-04 16:43 50.04462 8.56156 358 ft 3 kts 250°
2026-05-04 16:43 50.04455 8.56125 364 ft 1 kts 250°
2026-05-04 16:44 50.04454 8.56124 364 ft 0 kts 250°
2026-05-04 16:46 50.04446 8.56087 358 ft 5 kts 250°
2026-05-04 16:46 50.04372 8.56041 361 ft 8 kts 160°
2026-05-04 16:47 50.04324 8.56067 355 ft 7 kts 161°
2026-05-04 16:47 50.04238 8.55934 359 ft 15 kts 249°
2026-05-04 16:48 50.04089 8.55309 356 ft 23 kts 249°
2026-05-04 16:48 50.04033 8.55078 360 ft 23 kts 249°
2026-05-04 16:49 50.03911 8.54567 352 ft 27 kts 249°
2026-05-04 16:49 50.03798 8.54213 356 ft 17 kts 248°
2026-05-04 16:50 50.03705 8.53827 349 ft 21 kts 249°
2026-05-04 16:50 50.03598 8.53394 337 ft 23 kts 249°
2026-05-04 16:51 50.03497 8.52971 336 ft 15 kts 249°
2026-05-04 16:51 50.03470 8.52868 333 ft 3 kts 246°
2026-05-04 16:51 50.03467 8.52858 333 ft 2 kts 246°
2026-05-04 16:52 50.03440 8.52758 335 ft 7 kts 249°
2026-05-04 16:52 50.03434 8.52734 335 ft 0 kts 249°
2026-05-04 16:53 50.03433 8.52730 331 ft 1 kts 249°
2026-05-04 16:53 50.03363 8.52594 333 ft 3 kts 181°
2026-05-04 16:54 50.03360 8.52594 336 ft 0 kts 181°
2026-05-04 16:55 50.02427 8.52603 334 ft 140 kts 180°
2026-05-04 16:55 50.00055 8.52641 1388 ft 175 kts 181°
2026-05-04 16:56 49.97462 8.52840 2329 ft 209 kts 163°
2026-05-04 16:56 49.94553 8.58480 3649 ft 235 kts 117°
2026-05-04 16:57 49.94046 8.60950 3991 ft 248 kts 96°
2026-05-04 16:57 49.93814 8.66570 5261 ft 269 kts 99°
2026-05-04 16:58 49.90471 8.73194 7671 ft 271 kts 147°
2026-05-04 16:58 49.88971 8.74985 8476 ft 276 kts 139°
2026-05-04 16:59 49.86795 8.80008 10081 ft 286 kts 123°
2026-05-04 17:00 49.82438 8.92050 11825 ft 339 kts 122°
2026-05-04 17:00 49.78900 9.01776 13827 ft 352 kts 122°
2026-05-04 17:01 49.76513 9.08489 14971 ft 362 kts 116°
2026-05-04 17:01 49.75028 9.16038 16112 ft 370 kts 112°
2026-05-04 17:02 49.72398 9.22834 17272 ft 371 kts 134°
2026-05-04 17:02 49.68960 9.28861 18394 ft 377 kts 134°
2026-05-04 17:03 49.67223 9.31920 18884 ft 380 kts 134°
2026-05-04 17:03 49.65475 9.35003 19387 ft 383 kts 134°
2026-05-04 17:03 49.61945 9.41224 20410 ft 388 kts 134°
2026-05-04 17:04 49.58369 9.47514 21378 ft 393 kts 134°
2026-05-04 17:04 49.54742 9.53878 22247 ft 397 kts 134°
2026-05-04 17:05 49.51061 9.60334 22775 ft 403 kts 134°
2026-05-04 17:05 49.47358 9.66799 22981 ft 403 kts 134°
2026-05-04 17:06 49.43657 9.73263 22976 ft 402 kts 134°
2026-05-04 17:06 49.41805 9.76485 22977 ft 402 kts 134°
2026-05-04 17:07 49.38118 9.82878 22973 ft 402 kts 134°
2026-05-04 17:07 49.36867 9.85044 22965 ft 402 kts 134°
2026-05-04 17:07 49.34375 9.89350 22974 ft 403 kts 135°
2026-05-04 17:07 49.32538 9.92523 22976 ft 404 kts 135°
2026-05-04 17:08 49.30672 9.95739 22973 ft 404 kts 135°
2026-05-04 17:08 49.26940 10.02157 22988 ft 403 kts 135°
2026-05-04 17:08 49.25074 10.05354 22979 ft 403 kts 135°
2026-05-04 17:09 49.23205 10.08549 22986 ft 402 kts 135°
2026-05-04 17:09 49.21342 10.11737 22994 ft 403 kts 135°
2026-05-04 17:09 49.19477 10.14933 23000 ft 403 kts 135°
2026-05-04 17:10 49.15751 10.21307 22994 ft 402 kts 135°
2026-05-04 17:10 49.10072 10.30723 22980 ft 402 kts 137°
2026-05-04 17:11 49.08136 10.33802 22971 ft 402 kts 137°
2026-05-04 17:11 49.06198 10.36876 22974 ft 402 kts 137°
2026-05-04 17:11 49.02330 10.43018 22525 ft 400 kts 137°
2026-05-04 17:12 49.00414 10.46076 21862 ft 398 kts 137°
2026-05-04 17:12 48.96628 10.52131 20663 ft 392 kts 137°
2026-05-04 17:13 48.91055 10.61032 18894 ft 384 kts 136°
2026-05-04 17:14 48.85393 10.69430 17066 ft 372 kts 144°
2026-05-04 17:14 48.83383 10.71868 16478 ft 368 kts 144°
2026-05-04 17:14 48.79426 10.76640 15362 ft 359 kts 144°
2026-05-04 17:15 48.77485 10.78959 14843 ft 353 kts 144°
2026-05-04 17:15 48.73658 10.83483 13916 ft 343 kts 144°
2026-05-04 17:16 48.69866 10.87919 13389 ft 344 kts 144°
2026-05-04 17:16 48.64240 10.94525 12514 ft 337 kts 144°
2026-05-04 17:17 48.62409 10.96705 11894 ft 335 kts 144°
2026-05-04 17:17 48.57015 11.03183 10502 ft 317 kts 144°
2026-05-04 17:18 48.55341 11.05216 10378 ft 302 kts 144°
2026-05-04 17:18 48.52216 11.09062 9956 ft 283 kts 144°
2026-05-04 17:19 48.49206 11.12802 9154 ft 278 kts 144°
2026-05-04 17:19 48.46208 11.16445 8333 ft 275 kts 144°
2026-05-04 17:20 48.43233 11.19971 7555 ft 272 kts 144°
2026-05-04 17:20 48.40218 11.23441 6794 ft 270 kts 144°
2026-05-04 17:20 48.38724 11.25123 6451 ft 267 kts 144°
2026-05-04 17:21 48.36354 11.29386 5958 ft 272 kts 116°
2026-05-04 17:21 48.34827 11.34519 5495 ft 269 kts 114°
2026-05-04 17:22 48.34068 11.37097 5291 ft 268 kts 114°
2026-05-04 17:22 48.33486 11.39749 5110 ft 267 kts 97°
2026-05-04 17:23 48.33989 11.47750 5014 ft 233 kts 83°
2026-05-04 17:23 48.34177 11.50082 4884 ft 219 kts 83°
2026-05-04 17:23 48.34520 11.54392 4377 ft 197 kts 83°
2026-05-04 17:24 48.34679 11.56407 4124 ft 192 kts 83°
2026-05-04 17:24 48.35144 11.62283 3393 ft 186 kts 83°
2026-05-04 17:25 48.35294 11.64178 3150 ft 177 kts 83°
2026-05-04 17:25 48.35563 11.67617 2720 ft 156 kts 83°
2026-05-04 17:26 48.35803 11.70689 2317 ft 144 kts 81°
2026-05-04 17:26 48.36155 11.75184 1729 ft 144 kts 82°
2026-05-04 17:27 48.36345 11.77637 1487 ft 133 kts 83°
2026-05-04 17:27 48.36453 11.79074 1480 ft 31 kts 85°
2026-05-04 17:28 48.36368 11.79546 1483 ft 16 kts 114°
2026-05-04 17:29 48.36233 11.79715 1482 ft 12 kts 253°
2026-05-04 17:29 48.36100 11.79478 1480 ft 14 kts 173°
2026-05-04 17:30 48.35983 11.79498 1475 ft 0 kts 173°
2026-05-04 17:31 48.35971 11.79500 1482 ft 5 kts 173°
2026-05-04 17:31 48.35704 11.79547 1484 ft 16 kts 173°
2026-05-04 17:32 48.35532 11.79559 1485 ft 8 kts 198°
2026-05-04 17:33 48.35457 11.79405 1477 ft 6 kts 263°
2026-05-04 17:33 48.35453 11.79346 1485 ft 5 kts 263°
2026-05-04 17:34 48.35450 11.79312 1481 ft 0 kts 263°